This is the latest recevied weather packets stored in our database for station/object N1ICS-1. If no packets are shown the sender has not sent any weather packets the latest 10 day(s).
| Time | Temp. | Humidity | Pressure | Rain* | Wind** | Luminosity | Snow |
|---|---|---|---|---|---|---|---|
| 1777678202 | 9.44° C | 62% | 1016.8 hPa | 0 mm | - | 98 W/m² | - |
| 1777677901 | 9.44° C | 65% | 1016.7 hPa | 0 mm | - | 98 W/m² | - |
| 1777677602 | 10° C | 65% | 1016.7 hPa | 0 mm | - | 109 W/m² | - |
| 1777677302 | 10° C | 66% | 1016.7 hPa | 0 mm | - | 99 W/m² | - |
| 1777677002 | 10° C | 65% | 1016.7 hPa | 0 mm | - | 185 W/m² | - |
| 1777676702 | 9.44° C | 69% | 1017 hPa | 0 mm | - | 140 W/m² | - |
| 1777676403 | 9.44° C | 67% | 1016.8 hPa | 0 mm | - | 136 W/m² | - |
| 1777676102 | 9.44° C | 68% | 1017 hPa | 0 mm | - | 132 W/m² | - |
| 1777675802 | 9.44° C | 68% | 1017 hPa | 0 mm | - | 128 W/m² | - |
| 1777675502 | 9.44° C | 70% | 1017.1 hPa | 0 mm | - | 122 W/m² | - |
| 1777675202 | 8.89° C | 70% | 1017 hPa | 0 mm | - | 90 W/m² | - |
| 1777674901 | 8.89° C | 68% | 1016.9 hPa | 0 mm | - | 119 W/m² | - |
| 1777674604 | 9.44° C | 71% | 1016.9 hPa | 0 mm | - | 177 W/m² | - |
| 1777674303 | 9.44° C | 73% | 1016.9 hPa | 0 mm | - | 94 W/m² | - |
| 1777674003 | 9.44° C | 68% | 1016.7 hPa | 0 mm | - | 94 W/m² | - |
| 1777673702 | 9.44° C | 69% | 1016.6 hPa | 0 mm | - | 182 W/m² | - |
| 1777673403 | 10° C | 71% | 1016.9 hPa | 0 mm | - | 157 W/m² | - |
| 1777673102 | 10° C | 69% | 1016.6 hPa | 0 mm | - | 219 W/m² | - |
| 1777672803 | 9.44° C | 66% | 1016.8 hPa | 0 mm | - | 256 W/m² | - |
| 1777672502 | 10° C | 68% | 1016.8 hPa | 0 mm | - | 211 W/m² | - |
| 1777672201 | 10° C | 67% | 1016.8 hPa | 0 mm | - | 235 W/m² | - |
| 1777671901 | 10° C | 66% | 1016.6 hPa | 0 mm | - | 233 W/m² | - |
| 1777671602 | 10° C | 65% | 1016.5 hPa | 0 mm | - | 204 W/m² | - |
| 1777671302 | 10° C | 70% | 1016.6 hPa | 0 mm | - | 394 W/m² | - |
| 1777671002 | 9.44° C | 72% | 1016.5 hPa | 0 mm | - | 335 W/m² | - |
* Rain latest hour (hover to see other rain measurements)
** Current wind speed in m/s (hover to see current wind gust speed)